sat.trackr.live / text

‹ back to catalog

STARLINK-37870

NORAD 69432 · 2026-126N

PAYLOAD ACTIVE UNKNOWN

§ Identity

Operator
Country
US
Launch date
2026-06-07
Launch site
AFWTR
Launch vehicle
Mass (kg)
RCS (m²)

Purposes: comms

External: N2YO · Heavens-Above · Gunter

§ Orbital elements

Epoch: 2026-09-19T10:11:15.057312Z

Period
93.91 min
Inclination
97.2831°
Eccentricity
0.0002304
Mean motion
15.33444142 rev/d
Perigee alt
464.0 km
Apogee alt
467.1 km
Semi-major
6,843.7 km
B*
3.9245e-4
RAAN
123.7395°
Arg perigee
96.9121°
Mean anomaly
263.2384°
Rev number
1,736

§ Raw data

STARLINK-378701 69432U 26126N   26262.42447983  .00012616  00000+0  39245-3 0  99912 69432  97.2831 123.7395 0002304  96.9121 263.2384 15.33444142 17369

JSON: /api/v1/satellites/69432 · /tle

For live sub-satellite position, see the globe view (requires WebGL).

§ Visibility from observer

Set your observer location to see the next 7 days of passes ≥ 10°. The values pass through the URL so the page stays shareable.

No JS? Fill the form by hand. The geolocation button needs JavaScript.